 ,,�O�C���x [��],����1,�O�C���x [��],����2,���ԉ��x [��],����3,���Ԏ��x [��],����4,�m��(��󒲎�)���x [��],����5,���� [��],����6,�R����[��],����7
2004/5/1,0:00,13,0,87.4,0,23.7,0,50.9,0,21.9,0,15.4,0,22.2,0
2004/5/1,0:15,12.9,0,88.1,0,23.7,0,50.9,0,21.8,0,15.6,0,22.2,0
2004/5/1,0:30,12.6,0,90,0,23.7,0,50.7,0,21.7,0,15.8,0,22.2,0
2004/5/1,0:45,12.3,0,92.1,0,23.6,0,50.5,0,21.7,0,16.0,0,22.1,0
2004/5/1,1:00,12.2,0,93.2,0,23.6,0,50.4,0,21.6,0,16.2,0,22.1,0
2004/5/1,1:15,12,0,93.7,0,23.5,0,50.1,0,21.6,0,16.3,0,22,0
2004/5/1,1:30,11.8,0,93.8,0,23.4,0,49.9,0,21.5,0,16.5,0,22,0
2004/5/1,1:45,11.6,0,93.6,0,23.4,0,49.7,0,21.5,0,16.7,0,22,0
2004/5/1,2:00,11.3,0,92.9,0,23.3,0,49.6,0,21.4,0,16.8,0,21.9,0
2004/5/1,2:15,10.8,0,91.6,0,23.3,0,49.3,0,21.3,0,17.0,0,21.9,0
2004/5/1,2:30,10.8,0,90.6,0,23.2,0,49.2,0,21.3,0,17.1,0,21.8,0
2004/5/1,2:45,10.9,0,90.1,0,23.2,0,49.0,0,21.2,0,17.3,0,21.7,0
2004/5/1,3:00,10.8,0,87.9,0,23.1,0,48.8,0,21.2,0,17.4,0,21.6,0
2004/5/1,3:15,10.7,0,84.4,0,23.1,0,48.6,0,21.1,0,17.5,0,21.6,0
2004/5/1,3:30,10.6,0,83.6,0,23,0,48.2,0,21.1,0,17.7,0,21.5,0
2004/5/1,3:45,10.5,0,84,0,22.9,0,47.8,0,21.1,0,17.8,0,21.4,0
2004/5/1,4:00,10.6,0,83.1,0,22.9,0,47.5,0,21,0,17.9,0,21.4,0
2004/5/1,4:15,10.4,0,82.1,0,22.8,0,47.3,0,21,0,18.0,0,21.3,0
2004/5/1,4:30,10.3,0,80.2,0,22.7,0,47.1,0,20.9,0,18.1,0,21.2,0
2004/5/1,4:45,10.2,0,80,0,22.7,0,46.8,0,20.9,0,18.3,0,21.1,0
2004/5/1,5:00,10.2,0,77.6,0,22.6,0,46.6,0,20.8,0,18.4,0,21.1,0
2004/5/1,5:15,10.2,0,74.1,0,22.6,0,46.5,0,20.7,0,18.5,0,21,0
2004/5/1,5:30,10.2,0,72.9,0,22.5,0,46.6,0,20.7,0,18.6,0,21,0
2004/5/1,5:45,10.4,0,73.4,0,22.4,0,46.5,0,20.7,0,18.6,0,21,0
2004/5/1,6:00,10.8,0,73.2,0,22.5,0,46.4,0,20.7,0,14.8,0,21,0
2004/5/1,6:15,11.1,0,71.1,0,22.6,0,46.1,0,20.7,0,14.6,0,21,0
2004/5/1,6:30,11.5,0,64.3,0,22.7,0,45.8,0,20.8,0,14.7,0,21,0
2004/5/1,6:45,11.5,0,59.9,0,22.8,0,45.6,0,20.9,0,14.8,0,21.1,0
2004/5/1,7:00,11.6,0,56.8,0,23,0,45.5,0,20.9,0,14.9,0,21.2,0
2004/5/1,7:15,11.8,0,57.7,0,23.1,0,45.2,0,21.1,0,15.1,0,21.4,0
2004/5/1,7:30,11.6,0,59.1,0,23.5,0,49.2,0,21.2,0,15.2,0,23.2,0
2004/5/1,7:45,11.5,0,60.5,0,23.5,0,51.4,0,21.4,0,13.7,0,24,0
2004/5/1,8:00,11.7,0,63.6,0,23.6,0,51.3,0,21.5,0,12.8,0,24.2,0
2004/5/1,8:15,12.2,0,65.3,0,23.6,0,50.2,0,21.6,0,13.0,0,24.5,0
2004/5/1,8:30,12.8,0,64.7,0,23.8,0,49.1,0,21.7,0,13.1,0,24.1,0
2004/5/1,8:45,13.2,0,63.6,0,23.9,0,48.8,0,21.9,0,12.9,0,23.8,0
2004/5/1,9:00,13.8,0,62.9,0,24.1,0,48.2,0,22.1,0,13.0,0,23.4,0
2004/5/1,9:15,14.1,0,59.4,0,24.3,0,47.7,0,22.4,0,13.1,0,23.3,0
2004/5/1,9:30,14,0,58,0,24.4,0,46.9,0,22.5,0,13.3,0,23.3,0
2004/5/1,9:45,14,0,58.9,0,24.5,0,44.9,0,22.3,0,13.4,0,23.4,0
2004/5/1,10:00,14.2,0,58.7,0,24.5,0,43.9,0,22.2,0,13.6,0,23.4,0
2004/5/1,10:15,14,0,55.6,0,24.3,0,36.6,0,21.8,0,13.8,0,23.4,0
2004/5/1,10:30,13.9,0,55.1,0,23.8,0,35.1,0,21.7,0,14.0,0,23.2,0
2004/5/1,10:45,14.2,0,57.4,0,23.9,0,38.5,0,21.2,0,14.1,0,23,0
2004/5/1,11:00,14.4,0,56.9,0,23.9,0,36.9,0,21,0,14.3,0,23,0
2004/5/1,11:15,14.4,0,56.7,0,23.3,0,37.1,0,21.1,0,14.5,0,22.7,0
2004/5/1,11:30,14.8,0,49.8,0,22.9,0,38.5,0,21.1,0,14.7,0,22.4,0
2004/5/1,11:45,15,0,53.8,0,22.3,0,38.2,0,21.1,0,14.8,0,22,0
2004/5/1,12:00,15.3,0,52.6,0,22.6,0,40.5,0,21.2,0,15.0,0,22.3,0
2004/5/1,12:15,15.4,0,52.2,0,23.1,0,43.1,0,21.5,0,15.2,0,22.8,0
2004/5/1,12:30,15.4,0,49.3,0,23.4,0,43.9,0,21.8,0,15.4,0,23.3,0
2004/5/1,12:45,15.7,0,50.8,0,23.6,0,44.7,0,22.2,0,15.5,0,23.4,0
2004/5/1,13:00,15.5,0,50.2,0,23.8,0,44.9,0,22.5,0,14.1,0,23.4,0
2004/5/1,13:15,15.3,0,51.2,0,23.9,0,44.7,0,22.7,0,13.0,0,23.4,0
2004/5/1,13:30,15.5,0,54.3,0,24.1,0,45.0,0,23,0,13.1,0,23.4,0
2004/5/1,13:45,15.5,0,52.1,0,24.2,0,45.6,0,23.2,0,13.3,0,23.4,0
2004/5/1,14:00,15.5,0,48.8,0,24.3,0,44.8,0,23.4,0,13.4,0,23.4,0
2004/5/1,14:15,15.4,0,46.7,0,24.4,0,46.4,0,23.7,0,13.2,0,23.4,0
2004/5/1,14:30,15.5,0,45.9,0,24.4,0,41.6,0,23.9,0,12.9,0,23.5,0
2004/5/1,14:45,15.7,0,48.7,0,24.4,0,45.8,0,24.1,0,13.0,0,23.5,0
2004/5/1,15:00,15.4,0,51.8,0,24.5,0,46.9,0,24.3,0,13.1,0,23.6,0
2004/5/1,15:15,15.5,0,46.5,0,24.5,0,47.2,0,24.4,0,13.3,0,23.6,0
2004/5/1,15:30,15,0,45,0,24.6,0,47.3,0,24.5,0,13.5,0,23.7,0
2004/5/1,15:45,14.8,0,44.3,0,24.7,0,47.6,0,24.7,0,13.6,0,23.8,0
2004/5/1,16:00,14.8,0,44.3,0,24.7,0,47.1,0,24.8,0,13.8,0,23.9,0
2004/5/1,16:15,14.6,0,43.6,0,24.8,0,46.5,0,24.9,0,14.0,0,24,0
2004/5/1,16:30,14.6,0,45.7,0,24.8,0,46.2,0,24.9,0,14.2,0,24.1,0
2004/5/1,16:45,14.2,0,45.7,0,24.9,0,46.2,0,25,0,14.4,0,24.1,0
2004/5/1,17:00,14,0,45.6,0,24.9,0,45.2,0,25,0,14.6,0,24.2,0
2004/5/1,17:15,13.6,0,45.4,0,24.9,0,44.2,0,24.9,0,14.7,0,24.2,0
2004/5/1,17:30,13.1,0,45.9,0,24.9,0,43.6,0,24.9,0,14.9,0,24.1,0
2004/5/1,17:45,12.7,0,49.1,0,24.8,0,43.1,0,24.8,0,15.1,0,24.1,0
2004/5/1,18:00,12.2,0,48.7,0,24.8,0,42.6,0,24.7,0,15.3,0,24.1,0
2004/5/1,18:15,11.7,0,51.4,0,24.7,0,42.5,0,24.5,0,15.5,0,24,0
2004/5/1,18:30,11.3,0,51.9,0,24.6,0,42.5,0,24.4,0,15.7,0,23.9,0
2004/5/1,18:45,10.8,0,56.8,0,24.5,0,41.9,0,24.3,0,15.9,0,23.8,0
2004/5/1,19:00,10.2,0,59.1,0,24.5,0,41.4,0,24.1,0,16.1,0,23.7,0
2004/5/1,19:15,9.8,0,60.1,0,24.4,0,41.0,0,24,0,16.3,0,23.6,0
2004/5/1,19:30,9.1,0,63.7,0,24.4,0,40.7,0,23.8,0,16.5,0,23.5,0
2004/5/1,19:45,8.7,0,64.4,0,24.3,0,40.4,0,23.7,0,16.7,0,23.4,0
2004/5/1,20:00,8.5,0,64.2,0,24.2,0,40.1,0,23.5,0,16.8,0,23.2,0
2004/5/1,20:15,8.7,0,62.4,0,24.1,0,39.9,0,23.4,0,17.0,0,23.1,0
2004/5/1,20:30,8.5,0,64.7,0,24,0,39.7,0,23.3,0,17.2,0,23,0
2004/5/1,20:45,8.5,0,65.1,0,23.9,0,39.5,0,23.1,0,17.3,0,22.9,0
2004/5/1,21:00,8.3,0,67.1,0,23.8,0,39.3,0,23,0,17.5,0,22.7,0
2004/5/1,21:15,8.4,0,64.9,0,23.7,0,39.1,0,22.8,0,17.6,0,22.6,0
2004/5/1,21:30,7.3,0,71.9,0,23.6,0,39.0,0,22.7,0,17.8,0,22.5,0
2004/5/1,21:45,7,0,74.2,0,23.5,0,39.0,0,22.5,0,17.9,0,22.3,0
2004/5/1,22:00,6.8,0,76.6,0,23.3,0,38.9,0,22.4,0,18.0,0,22.2,0
2004/5/1,22:15,6.2,0,79.6,0,23.2,0,38.9,0,22.2,0,18.1,0,22,0
2004/5/1,22:30,6.3,0,79.1,0,23.1,0,38.9,0,22.1,0,18.2,0,21.9,0
2004/5/1,22:45,6.2,0,78.2,0,23,0,38.9,0,21.9,0,18.4,0,21.7,0
2004/5/1,23:00,6,0,78,0,22.9,0,38.9,0,21.8,0,18.5,0,21.6,0
2004/5/1,23:15,5.9,0,78.9,0,22.8,0,38.7,0,21.6,0,18.6,0,21.5,0
2004/5/1,23:30,5.7,0,80.3,0,22.6,0,38.7,0,21.5,0,18.7,0,21.4,0
2004/5/1,23:45,5.6,0,79.3,0,22.5,0,38.7,0,21.3,0,18.8,0,21.2,0
2004/5/2,0:00,5.3,0,80.1,0,22.4,0,38.6,0,21.2,0,18.9,0,21.1,0
2004/5/2,0:15,4.9,0,83,0,22.2,0,38.6,0,21,0,19.0,0,21,0
2004/5/2,0:30,4.7,0,83.3,0,22.1,0,38.6,0,20.9,0,19.1,0,20.8,0
2004/5/2,0:45,4.6,0,84.2,0,22,0,38.6,0,20.7,0,19.2,0,20.7,0
2004/5/2,1:00,4.9,0,83.8,0,21.9,0,38.5,0,20.6,0,19.3,0,20.6,0
2004/5/2,1:15,4.7,0,84.1,0,21.7,0,38.4,0,20.4,0,19.4,0,20.4,0
2004/5/2,1:30,4.5,0,84.3,0,21.6,0,38.5,0,20.3,0,19.4,0,20.3,0
2004/5/2,1:45,4.7,0,84.8,0,21.5,0,38.7,0,20.2,0,19.5,0,20.2,0
2004/5/2,2:00,4.7,0,86.1,0,21.4,0,38.9,0,20,0,19.6,0,20.1,0
2004/5/2,2:15,5.1,0,87.1,0,21.2,0,39.1,0,19.9,0,19.7,0,20.1,0
2004/5/2,2:30,4.8,0,86.6,0,21.1,0,39.0,0,19.8,0,19.8,0,20,0
2004/5/2,2:45,5.6,0,84.9,0,21,0,39.2,0,19.7,0,19.8,0,19.9,0
2004/5/2,3:00,6.4,0,81.8,0,20.9,0,39.2,0,19.6,0,19.9,0,19.9,0
2004/5/2,3:15,6.8,0,80.1,0,20.8,0,39.3,0,19.5,0,20.0,0,19.8,0
2004/5/2,3:30,6.9,0,78.4,0,20.7,0,39.3,0,19.4,0,20.0,0,19.7,0
2004/5/2,3:45,7.2,0,75.8,0,20.6,0,39.3,0,19.3,0,20.1,0,19.7,0
2004/5/2,4:00,7.5,0,73,0,20.5,0,39.4,0,19.2,0,20.2,0,19.6,0
2004/5/2,4:15,7.8,0,71,0,20.4,0,39.4,0,19.1,0,20.2,0,19.5,0
2004/5/2,4:30,8,0,69.5,0,20.3,0,39.4,0,19,0,20.3,0,19.5,0
2004/5/2,4:45,8.1,0,67.4,0,20.2,0,39.2,0,18.9,0,20.3,0,19.4,0
2004/5/2,5:00,8.2,0,66.2,0,20.1,0,39.3,0,18.9,0,20.4,0,19.3,0
2004/5/2,5:15,8.4,0,65,0,20,0,39.1,0,18.8,0,20.4,0,19.3,0
2004/5/2,5:30,8.5,0,64.6,0,20,0,38.9,0,18.8,0,20.5,0,19.2,0
2004/5/2,5:45,9.2,0,59.5,0,19.9,0,39.0,0,18.8,0,20.5,0,19.2,0
2004/5/2,6:00,9.5,0,56.2,0,20,0,39.2,0,18.8,0,20.5,0,19.1,0
2004/5/2,6:15,9.9,0,52.4,0,20,0,39.2,0,18.9,0,20.6,0,19.1,0
2004/5/2,6:30,10.4,0,48.9,0,20.1,0,39.1,0,19.1,0,20.6,0,19.2,0
2004/5/2,6:45,11,0,45.6,0,20.3,0,39.1,0,19.2,0,20.6,0,19.2,0
2004/5/2,7:00,11.5,0,42.9,0,20.4,0,39.1,0,19.4,0,20.6,0,19.3,0
2004/5/2,7:15,12,0,40.4,0,20.5,0,39.1,0,19.6,0,20.7,0,19.4,0
2004/5/2,7:30,12.6,0,39.2,0,20.7,0,39.2,0,19.8,0,20.7,0,19.5,0
2004/5/2,7:45,13.1,0,37.9,0,20.9,0,39.0,0,20.1,0,20.7,0,19.5,0
2004/5/2,8:00,13.7,0,37.9,0,21,0,38.9,0,20.4,0,20.7,0,19.6,0
2004/5/2,8:15,14.1,0,36.5,0,21.2,0,39.0,0,20.6,0,20.8,0,19.7,0
2004/5/2,8:30,14.3,0,36.2,0,21.3,0,38.9,0,20.9,0,20.8,0,19.8,0
2004/5/2,8:45,14.9,0,36,0,21.5,0,38.8,0,21.1,0,20.8,0,20,0
2004/5/2,9:00,15.3,0,33.3,0,21.6,0,38.7,0,21.4,0,20.8,0,20.1,0
2004/5/2,9:15,15.9,0,33,0,21.8,0,38.7,0,21.6,0,20.8,0,20.3,0
2004/5/2,9:30,16.2,0,32,0,21.9,0,38.6,0,21.7,0,20.8,0,20.4,0
2004/5/2,9:45,16.6,0,30.3,0,22,0,38.3,0,21.9,0,20.9,0,20.5,0
2004/5/2,10:00,16.8,0,30.4,0,22.1,0,38.2,0,22,0,20.9,0,20.7,0
2004/5/2,10:15,17.1,0,28.6,0,22.2,0,38.1,0,22.1,0,20.9,0,20.7,0
2004/5/2,10:30,17,0,28.2,0,22.3,0,38.0,0,22.2,0,20.9,0,20.8,0
2004/5/2,10:45,17.6,0,28.5,0,22.3,0,37.9,0,22.2,0,21.0,0,20.8,0
2004/5/2,11:00,18.1,0,27.7,0,22.4,0,37.9,0,22.3,0,21.0,0,20.9,0
2004/5/2,11:15,18.3,0,26.9,0,22.5,0,37.9,0,22.3,0,21.0,0,20.9,0
2004/5/2,11:30,18.3,0,26.8,0,22.5,0,37.9,0,22.3,0,21.0,0,21,0
2004/5/2,11:45,18.7,0,26.7,0,22.6,0,37.6,0,22.4,0,21.0,0,21,0
2004/5/2,12:00,19.1,0,25.8,0,22.7,0,35.3,0,22.5,0,21.0,0,21.1,0
2004/5/2,12:15,19.2,0,25.2,0,22.9,0,36.5,0,22.6,0,21.1,0,21.2,0
2004/5/2,12:30,19.6,0,24.9,0,23.1,0,37.2,0,22.7,0,21.1,0,21.4,0
2004/5/2,12:45,20,0,26,0,23.2,0,37.9,0,22.9,0,16.6,0,21.5,0
2004/5/2,13:00,20,0,24,0,23.4,0,38.2,0,23.1,0,16.4,0,21.7,0
2004/5/2,13:15,20,0,24.1,0,23.5,0,38.0,0,23.3,0,16.4,0,21.8,0
2004/5/2,13:30,19.9,0,22.7,0,23.6,0,37.2,0,23.5,0,16.5,0,22,0
2004/5/2,13:45,20.1,0,22.4,0,23.8,0,37.2,0,23.7,0,16.6,0,22.1,0
2004/5/2,14:00,19.7,0,22.8,0,23.9,0,37.3,0,23.9,0,16.7,0,22.3,0
2004/5/2,14:15,20,0,22.4,0,24,0,37.7,0,24,0,16.8,0,22.4,0
2004/5/2,14:30,19.7,0,22.5,0,24,0,37.8,0,24.2,0,15.1,0,22.5,0
2004/5/2,14:45,20.1,0,21.7,0,24.1,0,37.4,0,24.3,0,15.1,0,22.6,0
2004/5/2,15:00,20,0,20.2,0,24,0,30.8,0,24.4,0,13.3,0,22.7,0
2004/5/2,15:15,19.8,0,19.7,0,24.1,0,34.5,0,24.4,0,13.4,0,22.8,0
2004/5/2,15:30,19.5,0,19.2,0,24.1,0,36.5,0,24.5,0,13.5,0,22.9,0
2004/5/2,15:45,19.3,0,18.4,0,24.1,0,37.8,0,24.6,0,13.6,0,23,0
2004/5/2,16:00,19.2,0,18.9,0,24.1,0,38.4,0,24.6,0,13.8,0,23.1,0
2004/5/2,16:15,18.9,0,18.4,0,24.1,0,38.7,0,24.6,0,14.0,0,23.2,0
2004/5/2,16:30,18.6,0,18.3,0,24.2,0,38.5,0,24.6,0,14.1,0,23.3,0
2004/5/2,16:45,18.4,0,18.7,0,24.2,0,38.8,0,24.6,0,14.3,0,23.3,0
2004/5/2,17:00,17.7,0,19.4,0,24.2,0,38.5,0,24.6,0,14.4,0,23.4,0
2004/5/2,17:15,17.4,0,20.4,0,24.2,0,38.3,0,24.5,0,14.6,0,23.4,0
2004/5/2,17:30,16.8,0,21,0,24.1,0,37.9,0,24.4,0,14.8,0,23.3,0
2004/5/2,17:45,16.2,0,21.5,0,24.1,0,37.6,0,24.3,0,14.9,0,23.3,0
2004/5/2,18:00,15.3,0,22.2,0,24,0,37.1,0,24.1,0,15.1,0,23.3,0
2004/5/2,18:15,14.6,0,22.6,0,23.9,0,36.5,0,24,0,15.4,0,23.2,0
2004/5/2,18:30,14.1,0,23.1,0,23.8,0,36.6,0,23.8,0,15.5,0,23.2,0
2004/5/2,18:45,13.8,0,23.3,0,23.7,0,35.7,0,23.7,0,15.7,0,23.1,0
2004/5/2,19:00,13.5,0,23.2,0,23.7,0,35.5,0,23.5,0,15.9,0,23,0
2004/5/2,19:15,13.3,0,23.4,0,23.6,0,35.2,0,23.4,0,16.1,0,22.9,0
2004/5/2,19:30,13.2,0,23.4,0,23.5,0,35.0,0,23.2,0,16.2,0,22.8,0
2004/5/2,19:45,13.1,0,24.1,0,23.4,0,34.9,0,23.1,0,16.4,0,22.7,0
2004/5/2,20:00,12.9,0,24.3,0,23.3,0,34.7,0,22.9,0,16.6,0,22.6,0
2004/5/2,20:15,12.8,0,25.5,0,23.2,0,34.6,0,22.8,0,16.7,0,22.5,0
2004/5/2,20:30,12.7,0,26,0,23.1,0,34.7,0,22.7,0,16.9,0,22.5,0
2004/5/2,20:45,12.6,0,27.1,0,23,0,35.1,0,22.5,0,17.0,0,22.3,0
2004/5/2,21:00,12.7,0,28.8,0,22.9,0,34.8,0,22.4,0,17.2,0,22.2,0
2004/5/2,21:15,12.7,0,30.4,0,22.8,0,34.4,0,22.3,0,17.3,0,22.2,0
2004/5/2,21:30,12.7,0,31.6,0,22.7,0,34.3,0,22.2,0,17.5,0,22.1,0
2004/5/2,21:45,12.5,0,33.6,0,22.7,0,34.2,0,22.1,0,17.6,0,22,0
2004/5/2,22:00,12.5,0,34.3,0,22.6,0,34.4,0,21.9,0,17.7,0,21.9,0
2004/5/2,22:15,12.3,0,36.7,0,22.5,0,34.4,0,21.8,0,17.8,0,21.8,0
2004/5/2,22:30,11.9,0,39.6,0,22.4,0,34.4,0,21.7,0,17.9,0,21.7,0
2004/5/2,22:45,11.7,0,41.4,0,22.3,0,34.6,0,21.6,0,18.1,0,21.6,0
2004/5/2,23:00,11.7,0,43.4,0,22.2,0,34.6,0,21.5,0,18.2,0,21.5,0
2004/5/2,23:15,11.9,0,43.3,0,22.1,0,34.9,0,21.4,0,18.3,0,21.4,0
2004/5/2,23:30,11.1,0,47.3,0,22,0,35.3,0,21.3,0,18.4,0,21.3,0
2004/5/2,23:45,10.9,0,47,0,21.9,0,35.6,0,21.1,0,18.5,0,21.2,0
2004/5/3,0:00,10.9,0,48.7,0,21.8,0,35.7,0,21,0,18.6,0,21.1,0
2004/5/3,0:15,10.8,0,51.8,0,21.7,0,35.8,0,20.9,0,18.7,0,21,0
2004/5/3,0:30,10.7,0,53.5,0,21.6,0,35.9,0,20.8,0,18.8,0,20.9,0
2004/5/3,0:45,10.6,0,52.9,0,21.5,0,35.9,0,20.7,0,18.9,0,20.8,0
2004/5/3,1:00,10.6,0,54.7,0,21.5,0,36.0,0,20.6,0,19.0,0,20.7,0
2004/5/3,1:15,10.6,0,55.8,0,21.4,0,36.2,0,20.5,0,19.1,0,20.7,0
2004/5/3,1:30,10.5,0,56.8,0,21.3,0,36.2,0,20.4,0,19.1,0,20.6,0
2004/5/3,1:45,10.4,0,58.2,0,21.2,0,36.4,0,20.3,0,19.2,0,20.5,0
2004/5/3,2:00,10.3,0,59.1,0,21.1,0,36.5,0,20.2,0,19.3,0,20.4,0
2004/5/3,2:15,10.2,0,60.2,0,21,0,36.6,0,20.1,0,19.4,0,20.3,0
2004/5/3,2:30,10.1,0,60,0,21,0,36.7,0,20,0,19.4,0,20.2,0
2004/5/3,2:45,9.9,0,61.7,0,20.9,0,36.6,0,19.9,0,19.5,0,20.1,0
2004/5/3,3:00,9.7,0,62.2,0,20.8,0,36.6,0,19.9,0,19.6,0,20,0
2004/5/3,3:15,9.7,0,62.8,0,20.7,0,36.6,0,19.8,0,19.7,0,19.9,0
2004/5/3,3:30,9.6,0,63.4,0,20.6,0,36.8,0,19.7,0,19.7,0,19.8,0
2004/5/3,3:45,9.5,0,63.9,0,20.6,0,36.7,0,19.6,0,19.8,0,19.7,0
2004/5/3,4:00,9.5,0,64.2,0,20.5,0,36.8,0,19.5,0,19.8,0,19.6,0
2004/5/3,4:15,9.6,0,64.8,0,20.4,0,36.8,0,19.5,0,19.9,0,19.6,0
2004/5/3,4:30,9.6,0,64.5,0,20.3,0,36.9,0,19.4,0,19.9,0,19.5,0
2004/5/3,4:45,9.8,0,64.2,0,20.2,0,36.9,0,19.3,0,20.0,0,19.4,0
2004/5/3,5:00,9.9,0,64.3,0,20.2,0,37.1,0,19.2,0,20.1,0,19.4,0
2004/5/3,5:15,10,0,64.4,0,20.1,0,37.2,0,19.2,0,20.1,0,19.3,0
2004/5/3,5:30,10.1,0,64.8,0,20,0,37.3,0,19.1,0,20.2,0,19.2,0
2004/5/3,5:45,10.3,0,64.4,0,20,0,37.4,0,19,0,20.2,0,19.2,0
2004/5/3,6:00,10.6,0,63.9,0,19.9,0,37.5,0,19,0,20.3,0,19.1,0
2004/5/3,6:15,10.9,0,63.5,0,19.9,0,37.6,0,18.9,0,20.3,0,19.1,0
2004/5/3,6:30,11.2,0,62.9,0,19.8,0,37.8,0,18.9,0,20.3,0,19,0
2004/5/3,6:45,11.7,0,62.2,0,19.8,0,37.9,0,18.9,0,20.4,0,19,0
2004/5/3,7:00,12,0,62,0,19.8,0,38.1,0,18.9,0,20.4,0,19,0
2004/5/3,7:15,12.4,0,60.2,0,19.8,0,38.5,0,18.9,0,20.4,0,19,0
2004/5/3,7:30,13,0,58.8,0,19.8,0,38.8,0,18.9,0,20.5,0,19,0
2004/5/3,7:45,13.6,0,59.4,0,19.9,0,38.9,0,19,0,20.5,0,19,0
2004/5/3,8:00,13.7,0,60.5,0,20,0,39.3,0,19,0,20.5,0,19,0
2004/5/3,8:15,14.7,0,58.2,0,20,0,39.0,0,19.1,0,20.5,0,19,0
2004/5/3,8:30,15.8,0,53.8,0,20.2,0,39.4,0,19.2,0,20.6,0,19.1,0
2004/5/3,8:45,16.3,0,54.8,0,20.3,0,39.3,0,19.4,0,20.6,0,19.2,0
2004/5/3,9:00,17.1,0,55.6,0,20.5,0,39.6,0,19.6,0,20.6,0,19.3,0
2004/5/3,9:15,17.4,0,55.5,0,20.6,0,40.0,0,19.8,0,20.6,0,19.4,0
2004/5/3,9:30,18.1,0,55.1,0,20.8,0,40.4,0,20,0,20.6,0,19.5,0
2004/5/3,9:45,18.4,0,54.8,0,20.9,0,40.5,0,20.2,0,20.7,0,19.6,0
2004/5/3,10:00,18.5,0,55.6,0,20.9,0,41.0,0,20.4,0,20.7,0,19.7,0
2004/5/3,10:15,18.5,0,55.4,0,21,0,41.2,0,20.5,0,20.7,0,19.8,0
2004/5/3,10:30,18.5,0,56.3,0,21.1,0,41.4,0,20.6,0,20.7,0,19.8,0
2004/5/3,10:45,18.8,0,55.6,0,21.1,0,41.6,0,20.7,0,20.7,0,19.9,0
2004/5/3,11:00,19.3,0,56,0,21.2,0,41.8,0,20.9,0,20.8,0,20,0
2004/5/3,11:15,19.2,0,56.8,0,21.3,0,42.1,0,21.1,0,20.8,0,20.1,0
2004/5/3,11:30,19,0,57.1,0,21.4,0,42.2,0,21.2,0,20.8,0,20.2,0
2004/5/3,11:45,19.1,0,57.6,0,21.4,0,42.3,0,21.3,0,20.8,0,20.2,0
2004/5/3,12:00,20,0,55.4,0,21.6,0,42.5,0,21.4,0,20.9,0,20.3,0
2004/5/3,12:15,19.6,0,57.8,0,21.6,0,42.7,0,21.5,0,20.9,0,20.4,0
2004/5/3,12:30,19.7,0,56.4,0,21.7,0,42.8,0,21.6,0,20.9,0,20.5,0
2004/5/3,12:45,19.4,0,58.3,0,21.7,0,42.8,0,21.7,0,20.9,0,20.6,0
2004/5/3,13:00,19.7,0,58.2,0,21.8,0,42.9,0,21.8,0,21.0,0,20.7,0
2004/5/3,13:15,19.8,0,57.6,0,21.8,0,42.8,0,21.9,0,21.0,0,20.7,0
2004/5/3,13:30,19.3,0,60.1,0,21.9,0,42.8,0,22,0,21.0,0,20.8,0
2004/5/3,13:45,19.5,0,57.6,0,21.9,0,42.8,0,22,0,21.0,0,20.9,0
2004/5/3,14:00,19.6,0,58.7,0,22,0,42.8,0,22.1,0,21.1,0,20.9,0
2004/5/3,14:15,20.3,0,56.4,0,22,0,42.7,0,22.2,0,21.1,0,21,0
2004/5/3,14:30,21,0,56,0,22.1,0,42.9,0,22.3,0,21.1,0,21.1,0
2004/5/3,14:45,20.9,0,57.6,0,22.2,0,43.2,0,22.4,0,21.1,0,21.2,0
2004/5/3,15:00,20.9,0,58.3,0,22.3,0,43.3,0,22.5,0,21.1,0,21.2,0
2004/5/3,15:15,20.9,0,57.3,0,22.3,0,43.4,0,22.6,0,21.2,0,21.3,0
2004/5/3,15:30,20.9,0,56.8,0,22.4,0,43.4,0,22.7,0,21.2,0,21.4,0
2004/5/3,15:45,20.8,0,56.7,0,22.4,0,43.5,0,22.7,0,21.2,0,21.4,0
2004/5/3,16:00,20.6,0,58.1,0,22.5,0,43.5,0,22.8,0,21.2,0,21.5,0
2004/5/3,16:15,20.3,0,59,0,22.5,0,43.5,0,22.8,0,21.3,0,21.5,0
2004/5/3,16:30,20,0,60.4,0,22.5,0,43.3,0,22.8,0,21.3,0,21.5,0
2004/5/3,16:45,19.4,0,63.2,0,22.5,0,43.2,0,22.8,0,21.3,0,21.5,0
2004/5/3,17:00,19.2,0,64.1,0,22.5,0,42.9,0,22.8,0,21.3,0,21.6,0
2004/5/3,17:15,19.2,0,62,0,22.5,0,42.9,0,22.8,0,21.4,0,21.6,0
2004/5/3,17:30,18.9,0,64.9,0,22.5,0,42.9,0,22.8,0,21.4,0,21.6,0
2004/5/3,17:45,18.8,0,66.4,0,22.5,0,43.0,0,22.7,0,21.4,0,21.6,0
2004/5/3,18:00,18.3,0,66.6,0,22.5,0,42.9,0,22.7,0,21.4,0,21.6,0
2004/5/3,18:15,18,0,67.4,0,22.5,0,43.3,0,22.7,0,21.5,0,21.6,0
2004/5/3,18:30,17.4,0,67.7,0,22.4,0,44.3,0,22.6,0,21.5,0,21.6,0
2004/5/3,18:45,16.7,0,70.9,0,22.4,0,45.1,0,22.6,0,21.5,0,21.6,0
2004/5/3,19:00,16.3,0,73.2,0,22.3,0,45.0,0,22.6,0,21.6,0,21.6,0
2004/5/3,19:15,16.1,0,73.8,0,22.3,0,44.7,0,22.5,0,21.6,0,21.5,0
2004/5/3,19:30,16,0,75.4,0,22.3,0,44.4,0,22.4,0,21.7,0,21.5,0
2004/5/3,19:45,16.1,0,72.6,0,22.3,0,44.3,0,22.4,0,21.7,0,21.4,0
2004/5/3,20:00,16.2,0,73.1,0,22.3,0,44.3,0,22.3,0,21.7,0,21.4,0
2004/5/3,20:15,15.9,0,76.6,0,22.2,0,44.1,0,22.3,0,21.7,0,21.4,0
2004/5/3,20:30,15.3,0,82.5,0,22.2,0,44.0,0,22.2,0,21.8,0,21.3,0
2004/5/3,20:45,14.9,0,85.7,0,22.2,0,44.1,0,22.1,0,21.8,0,21.3,0
2004/5/3,21:00,14.9,0,85.4,0,22.1,0,44.1,0,22.1,0,21.8,0,21.3,0
2004/5/3,21:15,14.8,0,87.7,0,22.1,0,44.1,0,22,0,21.8,0,21.2,0
2004/5/3,21:30,14.7,0,89.1,0,22.1,0,44.3,0,22,0,21.8,0,21.2,0
2004/5/3,21:45,14.7,0,90.1,0,22,0,44.5,0,21.9,0,21.9,0,21.1,0
2004/5/3,22:00,14.7,0,90.8,0,22,0,44.6,0,21.8,0,21.9,0,21.1,0
2004/5/3,22:15,14.6,0,90.9,0,22,0,44.7,0,21.8,0,21.9,0,21.1,0
2004/5/3,22:30,14.7,0,90.9,0,21.9,0,44.9,0,21.7,0,22.0,0,21,0
2004/5/3,22:45,14.7,0,90.9,0,21.9,0,45.1,0,21.7,0,22.0,0,21,0
2004/5/3,23:00,14.7,0,91.1,0,21.9,0,45.2,0,21.6,0,22.0,0,20.9,0
2004/5/3,23:15,14.6,0,91.6,0,21.9,0,45.3,0,21.5,0,22.0,0,20.9,0
2004/5/3,23:30,14.7,0,91.6,0,21.8,0,45.4,0,21.5,0,22.0,0,20.9,0
2004/5/3,23:45,14.6,0,91.2,0,21.8,0,45.5,0,21.4,0,22.0,0,20.8,0
2004/5/4,0:00,14.8,0,91,0,21.8,0,45.5,0,21.4,0,22.1,0,20.8,0
2004/5/4,0:15,14.8,0,90.9,0,21.8,0,45.6,0,21.3,0,22.1,0,20.7,0
2004/5/4,0:30,14.7,0,90.9,0,21.7,0,45.7,0,21.2,0,22.1,0,20.7,0
2004/5/4,0:45,14.7,0,90.7,0,21.7,0,45.8,0,21.2,0,22.1,0,20.7,0
2004/5/4,1:00,14.8,0,90.5,0,21.6,0,45.9,0,21.1,0,22.1,0,20.6,0
2004/5/4,1:15,14.9,0,90.1,0,21.6,0,46.1,0,21.1,0,22.1,0,20.6,0
2004/5/4,1:30,14.9,0,89.8,0,21.6,0,46.1,0,21,0,22.2,0,20.6,0
2004/5/4,1:45,15,0,89.6,0,21.6,0,46.2,0,21,0,22.2,0,20.5,0
2004/5/4,2:00,15.1,0,88.9,0,21.6,0,46.3,0,20.9,0,22.2,0,20.5,0
2004/5/4,2:15,15,0,89.4,0,21.5,0,46.4,0,20.9,0,22.2,0,20.5,0
2004/5/4,2:30,15,0,89.3,0,21.5,0,46.4,0,20.8,0,22.2,0,20.4,0
2004/5/4,2:45,15,0,89.8,0,21.5,0,46.5,0,20.7,0,22.2,0,20.4,0
2004/5/4,3:00,15,0,89.7,0,21.5,0,46.6,0,20.7,0,22.2,0,20.4,0
2004/5/4,3:15,14.9,0,89.9,0,21.4,0,46.8,0,20.7,0,22.2,0,20.4,0
2004/5/4,3:30,14.9,0,90.2,0,21.4,0,46.7,0,20.6,0,22.3,0,20.4,0
2004/5/4,3:45,15.1,0,90.9,0,21.4,0,46.7,0,20.6,0,22.3,0,20.3,0
2004/5/4,4:00,15.4,0,92,0,21.4,0,47.1,0,20.5,0,22.3,0,20.3,0
2004/5/4,4:15,15.7,0,92.3,0,21.4,0,47.4,0,20.5,0,22.3,0,20.3,0
2004/5/4,4:30,16.2,0,90.8,0,21.3,0,47.9,0,20.4,0,22.3,0,20.3,0
2004/5/4,4:45,16.3,0,90.7,0,21.3,0,47.9,0,20.4,0,22.3,0,20.2,0
2004/5/4,5:00,16.2,0,91.4,0,21.3,0,48.1,0,20.4,0,22.3,0,20.2,0
2004/5/4,5:15,15.9,0,91.9,0,21.3,0,48.3,0,20.4,0,22.3,0,20.2,0
2004/5/4,5:30,16.1,0,92.3,0,21.3,0,48.6,0,20.3,0,22.3,0,20.2,0
2004/5/4,5:45,16.4,0,91.4,0,21.3,0,48.7,0,20.3,0,22.3,0,20.2,0
2004/5/4,6:00,16.7,0,90.9,0,21.3,0,48.9,0,20.3,0,22.4,0,20.2,0
2004/5/4,6:15,17,0,90,0,21.2,0,49.0,0,20.3,0,22.4,0,20.2,0
2004/5/4,6:30,17.9,0,86.5,0,21.2,0,49.8,0,20.3,0,22.4,0,20.2,0
2004/5/4,6:45,18.2,0,86,0,21.3,0,50.0,0,20.3,0,22.4,0,20.2,0
2004/5/4,7:00,18.3,0,86.2,0,21.3,0,50.7,0,20.3,0,22.4,0,20.2,0
2004/5/4,7:15,18.3,0,85.5,0,21.3,0,51.3,0,20.3,0,22.4,0,20.2,0
2004/5/4,7:30,18.3,0,86.4,0,21.3,0,52.7,0,20.3,0,22.4,0,20.2,0
2004/5/4,7:45,18.3,0,86.5,0,21.3,0,52.2,0,20.3,0,22.4,0,20.1,0
2004/5/4,8:00,18.4,0,85.9,0,21.3,0,53.4,0,20.3,0,22.4,0,20.1,0
2004/5/4,8:15,18.6,0,85.9,0,21.3,0,53.6,0,20.4,0,22.4,0,20.1,0
2004/5/4,8:30,18.9,0,85.5,0,21.3,0,54.3,0,20.4,0,22.4,0,20.1,0
2004/5/4,8:45,19.2,0,84.5,0,21.3,0,56.0,0,20.4,0,22.4,0,20.1,0
2004/5/4,9:00,19.4,0,84.1,0,21.3,0,55.2,0,20.4,0,22.4,0,20.2,0
2004/5/4,9:15,19.5,0,83.7,0,21.4,0,54.0,0,20.5,0,22.4,0,20.2,0
2004/5/4,9:30,19.6,0,82.6,0,21.5,0,52.4,0,20.6,0,22.4,0,20.2,0
2004/5/4,9:45,19.5,0,83.2,0,21.5,0,52.6,0,20.7,0,22.5,0,20.3,0
2004/5/4,10:00,18.4,0,85.1,0,21.6,0,53.0,0,20.7,0,22.4,0,20.3,0
2004/5/4,10:15,16.1,0,87.4,0,21.6,0,55.2,0,20.7,0,22.5,0,20.3,0
2004/5/4,10:30,15.2,0,90.1,0,21.6,0,54.1,0,20.8,0,22.5,0,20.3,0
2004/5/4,10:45,15.3,0,90.3,0,21.6,0,53.6,0,20.8,0,22.5,0,20.3,0
2004/5/4,11:00,15.1,0,90.5,0,21.6,0,53.0,0,20.8,0,22.5,0,20.3,0
2004/5/4,11:15,15,0,90.9,0,21.5,0,52.6,0,20.8,0,22.5,0,20.2,0
2004/5/4,11:30,15.1,0,90.8,0,21.5,0,52.3,0,20.8,0,22.5,0,20.1,0
2004/5/4,11:45,14.9,0,91,0,21.5,0,52.4,0,20.7,0,22.5,0,20.1,0
2004/5/4,12:00,14.4,0,91.1,0,21.5,0,52.0,0,20.7,0,22.5,0,20,0
2004/5/4,12:15,13.5,0,90.9,0,21.5,0,51.6,0,20.7,0,22.5,0,20,0
2004/5/4,12:30,12.4,0,91.2,0,21.4,0,51.2,0,20.7,0,22.5,0,20,0
2004/5/4,12:45,11.7,0,91.5,0,21.4,0,50.6,0,20.6,0,22.5,0,20.1,0
2004/5/4,13:00,11.4,0,91.7,0,21.4,0,50.0,0,20.6,0,22.6,0,20.1,0
2004/5/4,13:15,11.1,0,91.7,0,21.3,0,49.6,0,20.5,0,22.5,0,20.1,0
2004/5/4,13:30,10.9,0,91.3,0,21.3,0,49.2,0,20.5,0,22.5,0,20.1,0
2004/5/4,13:45,10.7,0,91.4,0,21.2,0,48.9,0,20.4,0,22.6,0,20.1,0
2004/5/4,14:00,10.7,0,91.3,0,21.2,0,48.6,0,20.4,0,22.5,0,20.1,0
2004/5/4,14:15,10.5,0,91.1,0,21.1,0,48.3,0,20.3,0,22.6,0,20.1,0
2004/5/4,14:30,10.4,0,91.1,0,21.1,0,48.1,0,20.2,0,22.6,0,20.1,0
2004/5/4,14:45,10.4,0,90.7,0,21,0,47.9,0,20.2,0,22.6,0,20,0
2004/5/4,15:00,10.4,0,90.5,0,21,0,47.8,0,20.1,0,22.6,0,20,0
2004/5/4,15:15,10.4,0,90.5,0,20.9,0,47.6,0,20.1,0,22.6,0,19.9,0
2004/5/4,15:30,10.4,0,89.8,0,20.9,0,47.5,0,20,0,22.6,0,19.9,0
2004/5/4,15:45,10.4,0,89.8,0,20.8,0,47.4,0,19.9,0,22.6,0,19.8,0
2004/5/4,16:00,10.3,0,90.2,0,20.8,0,47.2,0,19.9,0,22.6,0,19.8,0
2004/5/4,16:15,10.2,0,90.6,0,20.7,0,47.2,0,19.8,0,22.6,0,19.7,0
2004/5/4,16:30,10.3,0,90.7,0,20.7,0,47.2,0,19.7,0,22.6,0,19.7,0
2004/5/4,16:45,10.2,0,90.1,0,20.6,0,47.1,0,19.7,0,22.6,0,19.6,0
2004/5/4,17:00,10.2,0,89.5,0,20.5,0,47.0,0,19.6,0,22.6,0,19.6,0
2004/5/4,17:15,10.2,0,89.2,0,20.4,0,47.0,0,19.6,0,22.6,0,19.5,0
2004/5/4,17:30,10.2,0,88.7,0,20.3,0,47.0,0,19.5,0,22.6,0,19.4,0
2004/5/4,17:45,10.2,0,88.3,0,20.3,0,46.9,0,19.4,0,22.6,0,19.4,0
2004/5/4,18:00,10.2,0,87.9,0,20.2,0,46.9,0,19.4,0,22.6,0,19.3,0
2004/5/4,18:15,10.1,0,87.7,0,20.1,0,46.9,0,19.3,0,22.6,0,19.3,0
2004/5/4,18:30,10.1,0,88.1,0,20.1,0,46.8,0,19.2,0,22.6,0,19.2,0
2004/5/4,18:45,10.1,0,87.8,0,20,0,46.7,0,19.2,0,22.6,0,19.2,0
2004/5/4,19:00,10,0,88,0,20,0,46.7,0,19.1,0,22.5,0,19.1,0
2004/5/4,19:15,10,0,87.9,0,19.9,0,46.8,0,19,0,22.5,0,19.1,0
2004/5/4,19:30,10,0,87.7,0,19.8,0,46.8,0,19,0,22.5,0,19,0
2004/5/4,19:45,10,0,87.3,0,19.8,0,46.7,0,18.9,0,22.5,0,19,0
2004/5/4,20:00,10,0,87.4,0,19.7,0,46.7,0,18.8,0,22.5,0,18.9,0
2004/5/4,20:15,10,0,87,0,19.7,0,46.7,0,18.8,0,22.5,0,18.8,0
2004/5/4,20:30,10,0,86.4,0,19.6,0,46.8,0,18.7,0,22.5,0,18.8,0
2004/5/4,20:45,10.1,0,85.5,0,19.6,0,46.8,0,18.7,0,22.5,0,18.7,0
2004/5/4,21:00,10.1,0,85.7,0,19.5,0,46.8,0,18.6,0,22.5,0,18.7,0
2004/5/4,21:15,10.1,0,85.2,0,19.5,0,46.7,0,18.5,0,22.5,0,18.6,0
2004/5/4,21:30,10.1,0,84.9,0,19.4,0,46.7,0,18.5,0,22.4,0,18.6,0
2004/5/4,21:45,10.1,0,85.1,0,19.4,0,46.8,0,18.4,0,22.4,0,18.5,0